Regional Weather Roundup
Issued by NWS Mobile, AL

Home | Current Version | Previous Version | Text Only | Print | Product List | Glossary On
Versions: 1 2 3 4 5 6 7 8 9 10 11 12 13 14 15 16 17 18 19 20 21 22 23 24 25 26 27 28 29 30 31 32 33 34 35 36 37 38 39 40 41 42 43 44 45 46 47 48 49 50
000
ASUS44 KMOB 292206
RWRMOB
REGIONAL WEATHER ROUNDUP
NATIONAL WEATHER SERVICE MOBILE AL
500 PM CDT SAT AUG 29 2015

ALZ061>064-292300-
COASTAL ALABAMA


CITY           SKY/WX    TMP DP  RH WIND       PRES   REMARKS
MOBILE REG APT MOSUNNY   84  71  65 SE13      30.02S
BROOKLEY FIELD PTSUNNY   86  73  65 S12       30.02F
GULF SHORES    CLEAR     84  73  67 SE8       30.01F

$$

ALZ051>060-292300-
INTERIOR SOUTHWEST AND SOUTH CENTRAL ALABAMA


CITY           SKY/WX    TMP DP  RH WIND       PRES   REMARKS
ANDALUSIA/OPP  CLOUDY    84  69  60 E3        30.04S
EVERGREEN      CLOUDY    83  73  72 CALM      30.04F
FLORALA        CLOUDY    83  68  60 CALM      30.05S THUNDER
GREENVILLE     CLOUDY    77  70  78 E13G24    30.06R

$$

FLZ001>006-292300-
WESTERN FLORIDA PANHANDLE


CITY           SKY/WX    TMP DP  RH WIND       PRES   REMARKS
CRESTVIEW      CLOUDY    83  72  69 NE3       30.04S THUNDER
DESTIN         MOSUNNY   85  74  69 S7        30.02F
DUKE FIELD     FAIR      85  70  60 S9        30.01F
MARY ESTHER    MOSUNNY   84  72  66 S8        30.01F
MILTON         MOCLDY    87  69  54 S9        30.02F
PENSACOLA      MOSUNNY   84  71  65 SE7       30.02F
NAS PENSACOLA  MOSUNNY   84  72  67 S8        30.01F
VALPARAISO     PTSUNNY   85  73  67 S9        30.02S

$$

...MARINE OBSERVATIONS...

STATION/POSITION TIME  SKY/WX   TEMP    WIND        PRES    VSBY
                                AIR SEA DIR/SP/G
                 (UTC)          (F)     (DEG/KT/KT) (MB)    (MI)
GRAND BAY        2045            83     160/ 11     1018.0
E DAUPHIN ISLAND 2100            82     130/ 14/ 14 1016.4F
MIDDLE BAY LIGHT 2100                   150/ 14     1015.9F
MEAHER PARK      2100            83     190/ 13     1015.9F
12 S ORANGE BCH  2150            83 86  130/  6/  8 1016.0F
WVE H/P(F/S)=  3/ 6

64 S DAUPHIN ISL 2150            84 88  210/  4/  6 1016.6F
WVE H/P(F/S)=  2/ 6

115 SE PENSACOLA 2150            82 85  110/  6/  8 1016.8F
WVE H/P(F/S)=  2/ 5

MID GULF/42001   2100            85 87   70/  6/  8 1015.9F
EAST GULF/42003  2150            83 86   60/ 12/ 14 1015.6R
WVE H/P(F/S)=  5/ 6


$$

...NEARBY LOCATIONS

CITY           SKY/WX    TMP DP  RH WIND       PRES   REMARKS
GULFPORT       PTSUNNY   85  71  63 S9        29.99F
BILOXI         MOSUNNY   86  73  64 SW12      30.00F
PASCAGOULA     MOSUNNY   86  72  62 SE10      30.01S
HATTIESBURG    MOSUNNY   91  60  35 VRB3      30.00S
LAUREL         MOSUNNY   90  61  37 S6        30.02S
MERIDIAN       MOSUNNY   87  65  47 SE8       30.01S
MERIDIAN NAS   MOSUNNY   87  68  52 SE9       30.01F
MONTGOMERY     CLOUDY    76  71  85 CALM      30.08S
MAXWELL AFB    CLOUDY    74  71  89 N5        30.07S
TROY           CLOUDY    79  70  74 NW8       30.07S
FORT RUCKER    CLOUDY    78  66  66 E3        30.04S
DALEVILLE      PTSUNNY   78  68  70 E5        30.05S
DOTHAN         CLOUDY    75  68  78 E9        30.08F

$$

...OTHER SURROUNDING LOCATIONS...

CITY           SKY/WX    TMP DP  RH WIND       PRES   REMARKS
BIRMINGHAM     CLOUDY    80  72  76 W12       30.11S THUNDER
TUSCALOOSA     LGT RAIN  76  71  85 NE8       30.07R
COLUMBUS GA    CLOUDY    74  69  85 E14G20    30.09R
PANAMA CITY    NOT AVBL
TALLAHASSEE    CLOUDY    83  72  69 E6        30.03F
BATON ROUGE    MOSUNNY   89  64  43 CALM      29.98F
NEW ORLEANS    MOSUNNY   88  65  46 S8        29.98F
SLIDELL        SUNNY     88  68  51 SE10      29.99F
JACKSON        MOSUNNY   92  55  28 S12       29.98F
MCCOMB         MOSUNNY   87  65  47 S8        29.99F

$$

...SURROUNDING MARINE OBSERVATIONS...

STATION/POSITION TIME  SKY/WX   TEMP    WIND        PRES    VSBY
                                AIR SEA DIR/SP/G
                 (UTC)          (F)     (DEG/KT/KT) (MB)    (MI)
SOUTHWEST PASS   2100                                 N/A
TYNDALL TOWER C  2200            80     130/  5/  7 1016.0F
S APLCHCLA/42036 2150            80 85  140/  4/  6 1016.5F
WVE H/P(F/S)=  1/ 4


$$




USA.gov is the U.S. government's official web portal to all federal, state and local government web resources and services.